Minden, LA

6:13 PM CDT on June 27, 2017 (GMT -0500)
Minden

Weather History for KMNE - March, 2012

Change the Weather History Date:

Friday, March 30, 2012

  Actual Average (KBAD) Record (KBAD)
Temperature  
Mean Temperature 68 °F -  
Max Temperature 77 °F 70 °F 82 °F (1998)
Min Temperature 60 °F 50 °F 33 °F (2003)
Cooling Degree Days 4    
Growing Degree Days 18 (Base 50)    
Moisture  
Dew Point 62 °F    
Average Humidity 88    
Maximum Humidity 94    
Minimum Humidity 61    
Precipitation  
Precipitation 0.01 in - - ()
Sea Level Pressure  
Sea Level Pressure 29.91 in    
Wind  
Wind Speed 1 mph ()    
Max Wind Speed 6 mph    
Max Gust Speed -    
Visibility 6.7 miles    
Events Rain , Thunderstorm    
Averages and records for this station are not official NWS values.
T = Trace of Precipitation, MM = Missing Value Source: Averaged Metar Reports

Daily Weather History Graph

Daily Weather History Graph

Search for Another Location

Airport or City:

Trip Planner

Search our weather history database for the weather conditions in past years. The results will help you decide how hot, cold, wet, or windy it might be!

Date:

Astronomy

Mar. 30, 2012 Rise Set
Actual Time 7:03 AM CDT 7:32 PM CDT
Civil Twilight 6:38 AM CDT 7:56 PM CDT
Nautical Twilight 6:09 AM CDT 8:26 PM CDT
Astronomical Twilight 5:39 AM CDT 8:55 PM CDT
Moon 12:24 PM CDT (3/30) 1:54 AM CDT (3/30)
Length of Visible Light 13h 18m
Length of Day
12h 29m
Waxing Crescent, 49% of the Moon is Illuminated
Mar 30
Waxing Crescent
Mar 30
First Quarter
Apr 6
Full
Apr 13
Last Quarter
Apr 21
New

Hourly Weather History & Observations

Time (CDT) Temp. Dew Point Humidity Pressure Visibility Wind Dir Wind Speed Gust Speed Precip Events Conditions
12:15 AM 62.6 °F 60.8 °F 94% 29.94 in 10.0 mi Calm Calm - N/A   Overcast
12:35 AM 62.6 °F 60.8 °F 94% 29.94 in 10.0 mi Calm Calm - N/A   Overcast
12:55 AM 62.6 °F 60.8 °F 94% 29.94 in 7.0 mi Calm Calm - N/A   Overcast
1:15 AM 62.6 °F 60.8 °F 94% 29.93 in 5.0 mi Calm Calm - N/A   Overcast
1:35 AM 62.6 °F 60.8 °F 94% 29.93 in 5.0 mi Calm Calm - N/A   Overcast
1:55 AM 62.6 °F 60.8 °F 94% 29.93 in 7.0 mi Calm Calm - N/A   Overcast
2:15 AM 62.6 °F 60.8 °F 94% 29.92 in 2.5 mi Calm Calm - N/A   Mostly Cloudy
2:35 AM 62.6 °F 60.8 °F 94% 29.92 in 4.0 mi Calm Calm - N/A   Mostly Cloudy
2:55 AM 62.6 °F 60.8 °F 94% 29.92 in 4.0 mi Calm Calm - N/A   Overcast
3:15 AM 62.6 °F 60.8 °F 94% 29.93 in 4.0 mi Calm Calm - N/A   Overcast
3:35 AM 62.6 °F 60.8 °F 94% 29.92 in 4.0 mi Calm Calm - N/A   Overcast
3:55 AM 62.6 °F 60.8 °F 94% 29.92 in 4.0 mi Calm Calm - N/A   Overcast
4:15 AM 62.6 °F 60.8 °F 94% 29.91 in 4.0 mi SE 3.5 mph - N/A   Scattered Clouds
4:35 AM 62.6 °F 60.8 °F 94% 29.91 in 4.0 mi Calm Calm - N/A   Scattered Clouds
4:55 AM 62.6 °F 60.8 °F 94% 29.90 in 4.0 mi ESE 3.5 mph - N/A   Mostly Cloudy
5:15 AM 62.6 °F 60.8 °F 94% 29.91 in 4.0 mi Calm Calm - N/A   Overcast
5:35 AM 62.6 °F 60.8 °F 94% 29.91 in 5.0 mi Calm Calm - N/A   Overcast
5:55 AM 62.6 °F 60.8 °F 94% 29.91 in 4.0 mi Calm Calm - N/A   Overcast
6:15 AM 60.8 °F 59.0 °F 94% 29.92 in 3.0 mi SSE 3.5 mph - N/A   Overcast
6:35 AM 62.6 °F 60.8 °F 94% 29.93 in 3.0 mi SSE 3.5 mph - N/A   Overcast
6:55 AM 62.6 °F 60.8 °F 94% 29.93 in 3.0 mi SE 3.5 mph - N/A   Overcast
7:15 AM 62.6 °F 60.8 °F 94% 29.93 in 1.2 mi Calm Calm - N/A   Overcast
7:35 AM 62.6 °F 60.8 °F 94% 29.93 in 1.5 mi Calm Calm - N/A Thunderstorm Overcast
7:55 AM 62.6 °F 60.8 °F 94% 29.93 in 2.5 mi Calm Calm - N/A   Overcast
8:15 AM 62.6 °F 60.8 °F 94% 29.94 in 3.0 mi Calm Calm - N/A   Overcast
8:18 AM 64.4 °F 62.6 °F 94% 29.94 in 3.0 mi Calm Calm - N/A   Overcast
8:35 AM 62.6 °F 60.8 °F 94% 29.94 in 4.0 mi Calm Calm - N/A   Overcast
8:55 AM 62.6 °F 60.8 °F 94% 29.95 in 5.0 mi South 3.5 mph - N/A   Overcast
9:15 AM 64.4 °F 60.8 °F 88% 29.95 in 5.0 mi SSE 3.5 mph - N/A Rain Light Rain
9:35 AM 64.4 °F 62.6 °F 94% 29.96 in 5.0 mi SSE 3.5 mph - 0.01 in   Overcast
9:55 AM 64.4 °F 62.6 °F 94% 29.95 in 7.0 mi South 3.5 mph - 0.01 in   Overcast
10:15 AM 66.2 °F 62.6 °F 88% 29.95 in 10.0 mi South 5.8 mph - N/A   Overcast
10:35 AM 68.0 °F 64.4 °F 88% 29.96 in 10.0 mi South 4.6 mph - N/A Thunderstorm Overcast
10:55 AM 66.2 °F 62.6 °F 88% 29.97 in 10.0 mi SSW 5.8 mph - N/A   Overcast
11:15 AM 66.2 °F 62.6 °F 88% 29.97 in 10.0 mi South 4.6 mph - N/A   Overcast
12:35 PM 71.6 °F 64.4 °F 78% 29.94 in 10.0 mi South 4.6 mph - N/A   Overcast
12:55 PM 69.8 °F 64.4 °F 83% 29.93 in 10.0 mi SSW 5.8 mph - N/A   Overcast
1:15 PM 69.8 °F 62.6 °F 78% 29.93 in 10.0 mi WSW 3.5 mph - N/A   Overcast
1:35 PM 69.8 °F 62.6 °F 78% 29.92 in 10.0 mi WSW 3.5 mph - N/A   Overcast
1:55 PM 71.6 °F 62.6 °F 73% 29.91 in 10.0 mi Calm Calm - N/A   Overcast
2:15 PM 73.4 °F 62.6 °F 69% 29.91 in 10.0 mi Calm Calm - N/A   Overcast
2:55 PM 73.4 °F 62.6 °F 69% 29.89 in 10.0 mi SSE 4.6 mph - N/A   Overcast
3:55 PM 77.0 °F 64.4 °F 65% 29.86 in 10.0 mi South 5.8 mph - N/A   Scattered Clouds
4:35 PM 77.0 °F 62.6 °F 61% 29.86 in 10.0 mi Calm Calm - N/A   Scattered Clouds
4:55 PM 77.0 °F 62.6 °F 61% 29.85 in 10.0 mi SSW 4.6 mph - N/A   Scattered Clouds
6:35 PM 73.4 °F 62.6 °F 69% 29.85 in 10.0 mi South 3.5 mph - N/A   Clear
7:35 PM 71.6 °F 64.4 °F 78% 29.86 in 10.0 mi Calm Calm - N/A   Clear
7:55 PM 69.8 °F 64.4 °F 83% 29.86 in 10.0 mi Calm Calm - N/A   Clear
8:15 PM 69.8 °F 64.4 °F 83% 29.86 in 10.0 mi Calm Calm - N/A   Clear
8:35 PM 69.8 °F 64.4 °F 83% 29.86 in 10.0 mi Calm Calm - N/A   Clear
8:55 PM 68.0 °F 62.6 °F 83% 29.87 in 10.0 mi Calm Calm - N/A   Clear
9:15 PM 68.0 °F 64.4 °F 88% 29.88 in 10.0 mi Calm Calm - N/A   Clear
9:35 PM 66.2 °F 62.6 °F 88% 29.88 in 7.0 mi Calm Calm - N/A   Clear
9:55 PM 64.4 °F 62.6 °F 94% 29.88 in 4.0 mi Calm Calm - N/A   Clear
10:15 PM 64.4 °F 62.6 °F 94% 29.88 in 4.0 mi Calm Calm - N/A   Clear
10:35 PM 64.4 °F 62.6 °F 94% 29.88 in 7.0 mi Calm Calm - N/A   Clear
10:55 PM 66.2 °F 62.6 °F 88% 29.88 in 10.0 mi Calm Calm - N/A   Clear
11:15 PM 64.4 °F 62.6 °F 94% 29.88 in 7.0 mi Calm Calm - N/A   Clear
11:35 PM 64.4 °F 62.6 °F 94% 29.88 in 7.0 mi Calm Calm - N/A   Clear
11:55 PM 64.4 °F 62.6 °F 94% 29.89 in 7.0 mi Calm Calm - N/A   Clear